[[{"header":{"parameterUnit":"m.s-1","parameterCategory":1,"la1":30.2991,"la2":30.254,"lo1":-89.0895,"lo2":-89.0444,"dy":0.0017,"dx":0.0017,"nx":28,"ny":28,"refTime":"2024-04-26T21:00:00:Z","depth":0,"parameterNumber":2,"parameterNumberName":"U-component_of_WINDS"},"data":[0,0,0,0,0,0,0,0,0,0,0,0,0,0,0,0,0,0,0,0,0,0,0,0,0,0,0,0,0,0,0,0,0,0,0,0,0,0,0,0,0,0,0,0,0,0,0,0,0,0,0,0,0,0,0,0,0,0,-7.578,-7.5782,0,-7.5923,-7.5925,-7.5926,-7.5931,-7.5929,-7.5927,-7.5925,-7.6064,-7.6069,-7.6074,0,0,0,0,0,0,0,0,0,0,0,0,0,-7.5506,-7.5511,-7.578,-7.5782,-7.5784,-7.5923,-7.5925,-7.5927,-7.5931,-7.5929,-7.5927,-7.5925,-7.6062,-7.6068,-7.6075,0,0,0,0,0,0,0,0,0,0,0,0,0,-7.5634,-7.5513,-7.578,-7.5803,-7.5806,-7.5922,-7.5925,-7.5927,-7.5931,-7.5929,-7.5926,-7.5924,-7.606,-7.6068,-7.6075,-7.6176,0,0,-7.61,-7.6103,0,0,0,0,0,0,0,0,-7.5627,-7.5644,-7.5798,-7.5802,-7.5806,-7.5907,-7.5879,-7.601,-7.5932,-7.5884,-7.5925,-7.5922,-7.6013,-7.6025,-7.6057,-7.6182,-7.6188,-7.61,-7.6105,-7.6109,-7.6111,0,0,0,0,0,0,0,-7.5618,-7.5638,-7.5836,-7.58,-7.5805,-7.5804,-7.582,-7.5904,-7.5961,-7.5888,-7.5888,-7.5906,-7.6015,-7.6049,-7.606,-7.619,-7.61,-7.6107,-7.6112,-7.6115,-7.6406,-7.6409,0,0,0,0,0,0,-7.5606,-7.5631,-7.5832,-7.5841,-7.5709,-7.5811,-7.5829,-7.5877,-7.596,-7.597,-7.5908,-7.5905,-7.6037,-7.6051,-7.6065,-7.6187,-7.6108,-7.6116,-7.612,-7.6403,-7.6407,-7.641,0,0,0,0,0,0,-7.56,-7.5624,-7.5826,-7.5736,-7.5762,-7.5819,-7.5873,-7.5881,-7.5915,-7.5975,-7.5985,-7.5933,-7.6035,-7.6054,-7.6149,-7.6192,-7.6119,-7.6127,-7.64,-7.6404,-7.6408,-7.6433,0,0,0,0,0,0,-7.5592,-7.5622,-7.5661,-7.5737,-7.5767,-7.5909,-7.5876,-7.5885,-7.593,-7.5928,-7.6001,-7.6011,-7.6035,-7.6137,-7.6157,-7.6202,-7.6133,-7.6396,-7.6402,-7.6407,-7.6429,-7.6438,-7.6446,0,0,0,0,0,-7.5582,-7.566,-7.5663,-7.5687,-7.5818,-7.5912,-7.5928,-7.5957,-7.5933,-7.5973,-7.6012,-7.6008,-7.6186,-7.6147,-7.6169,-7.6217,-7.6393,-7.64,-7.6407,-7.6425,-7.6436,-7.6446,0,0,0,0,0,0,-7.5584,-7.5671,-7.5674,-7.578,-7.5839,-7.5912,-7.5962,-7.5968,-7.6032,-7.6027,-7.6058,-7.6075,-7.6169,-7.6203,-7.6159,-7.6319,-7.6286,-7.6298,-7.6293,-7.6304,-7.6312,-7.63,-7.6139,0,0,0,0,0,-7.5598,-7.5669,-7.574,-7.5826,-7.5856,-7.5905,-7.5947,-7.5964,-7.6025,-7.6049,-7.6095,-7.6152,-7.6221,-7.6265,-7.6331,-7.6436,-7.6451,-7.648,-7.6488,-7.6495,-7.6503,-7.6561,-7.6574,-7.6432,-7.6432,-7.6432,0,0,-7.5624,-7.5681,-7.5723,-7.5828,-7.5876,-7.5947,-7.5925,-7.6001,-7.6053,-7.606,-7.6152,-7.6189,-7.6255,-7.6355,-7.6401,-7.6386,-7.6547,-7.6504,-7.6509,-7.6513,-7.6569,-7.6582,-7.6594,-7.6437,-7.6436,-7.6435,0,0,-7.5709,-7.576,-7.5838,-7.5887,-7.5961,-7.5994,-7.6013,-7.6087,-7.6112,-7.6207,-7.6213,-7.6276,-7.6393,-7.644,-7.648,-7.6588,-7.6586,-7.6609,-7.6652,-7.6707,-7.6718,-7.6728,-7.6765,-7.6778,-7.6617,-7.6618,-7.6618,0,-7.5732,-7.5842,-7.5876,-7.5953,-7.5999,-7.6013,-7.609,-7.6136,-7.6226,-7.6257,-7.624,-7.639,-7.6435,-7.6547,-7.6573,-7.6606,-7.6627,-7.6598,-7.6715,-7.6725,-7.6735,-7.677,-7.6784,-7.662,-7.6619,-7.6619,-7.6619,0,-7.5866,-7.5942,-7.5996,-7.6086,-7.6139,-7.6215,-7.626,-7.6309,-7.6323,-7.6357,-7.6454,-7.651,-7.6588,-7.6617,-7.663,-7.6731,-7.6719,-7.6709,-7.6675,-7.675,-7.6783,-7.6797,-7.6622,-7.6622,-7.6621,-7.6621,0,0,-7.595,-7.6063,-7.6082,-7.6124,-7.6208,-7.6267,-7.6345,-7.6425,-7.6465,-7.6529,-7.6593,-7.6695,-7.6687,-7.6732,-7.6751,-7.68,-7.6881,-7.6784,-7.6786,-7.6797,-7.6993,-7.6998,-7.7013,-7.6883,-7.6886,-7.6888,-7.6987,0,-7.6043,-7.6183,-7.6218,-7.6338,-7.6408,-7.6424,-7.6492,-7.655,-7.6586,-7.6649,-7.6687,-7.6758,-7.6743,-7.677,-7.682,-7.686,-7.692,-7.6854,-7.694,-7.6943,-7.6919,-7.7031,-7.7036,-7.7127,-7.7,-7.7003,-7.7004,0,-7.6167,-7.6237,-7.6364,-7.6441,-7.6472,-7.6533,-7.6609,-7.6671,-7.6738,-7.676,-7.6813,-7.6828,-7.6909,-7.6876,-7.6986,-7.6941,-7.6979,-7.7005,-7.7009,-7.7014,-7.6975,-7.7036,-7.7156,-7.7169,-7.7026,-7.7024,-7.7022,0,-7.6214,-7.6339,-7.6432,-7.6467,-7.656,-7.6602,-7.6643,-7.6708,-7.6754,-7.6821,-7.6852,-7.6927,-7.6966,-7.7024,-7.7059,-7.7032,-7.7166,-7.7136,-7.7184,-7.7183,-7.7208,-7.7205,-7.7332,-7.7239,-7.7238,-7.7238,-7.7238,0,-7.631,-7.6387,-7.6454,-7.651,-7.6596,-7.6637,-7.672,-7.6761,-7.6819,-7.6883,-7.6902,-7.696,-7.7005,-7.707,-7.7098,-7.7185,-7.7203,-7.7222,-7.7227,-7.7218,-7.7215,-7.724,-7.7233,-7.7242,-7.7241,-7.724,-7.724,0,-7.6374,-7.6423,-7.6524,-7.6606,-7.6629,-7.6688,-7.6757,-7.6812,-7.685,-7.693,-7.6951,-7.7009,-7.7087,-7.7129,-7.7225,-7.7244,-7.734,-7.7345,-7.7318,-7.732,-7.7365,-7.7359,-7.7509,-7.753,-7.7426,-7.7427,-7.7427,0,-7.6431,-7.649,-7.658,-7.6625,-7.6667,-7.674,-7.6789,-7.6832,-7.6881,-7.6964,-7.7008,-7.7088,-7.7153,-7.7276,-7.7326,-7.74,-7.7404,-7.7452,-7.7414,-7.7403,-7.7401,-7.7396,-7.7401,-7.7456,-7.7457,-7.7458,-7.7459,0,-7.6525,-7.6548,-7.6618,-7.6698,-7.6756,-7.6821,-7.6884,-7.692,-7.6973,-7.7028,-7.7109,-7.716,-7.7261,-7.7338,-7.7418,-7.7457,-7.7466,-7.7471,-7.7486,-7.7474,-7.7455,-7.7464,-7.7332,-7.7466,-7.7465,-7.7465,-7.7464,-7.7464,-7.6586,-7.664,-7.6712,-7.679,-7.6844,-7.6903,-7.6959,-7.7006,-7.7075,-7.7161,-7.7183,-7.7268,-7.7335,-7.7443,-7.7485,-7.7551,-7.7542,-7.7563,-7.7568,-7.7572,-7.7573,-7.7449,-7.7566,-7.7566,-7.7566,-7.7566,-7.7566,0,-7.6679,-7.6728,-7.68,-7.689,-7.6951,-7.696,-7.7031,-7.7081,-7.7157,-7.722,-7.7285,-7.7379,-7.7456,-7.7514,-7.7592,-7.7633,-7.764,-7.7652,-7.7647,-7.7656,-7.7578,-7.7556,-7.7646,-7.7646,-7.7646,-7.7646,-7.7646,-7.7646,-7.6735,-7.6826,-7.6858,-7.6976,-7.7024,-7.7109,-7.7149,-7.7204,-7.7255,-7.7359,-7.7424,-7.7463,-7.7524,-7.7607,-7.7678,-7.7693,-7.7719,-7.7731,-7.7746,-7.767,-7.7662,-7.7653,-7.7633,-7.7737,-7.7737,-7.7818,-7.7819,-7.782]},{"header":{"parameterUnit":"m.s-1","parameterCategory":1,"la1":30.2991,"la2":30.254,"lo1":-89.0895,"lo2":-89.0444,"dy":0.0017,"dx":0.0017,"nx":28,"ny":28,"refTime":"2024-04-26T21:00:00:Z","depth":0,"parameterNumber":3,"parameterNumberName":"V-component_of_WINDS"},"data":[0,0,0,0,0,0,0,0,0,0,0,0,0,0,0,0,0,0,0,0,0,0,0,0,0,0,0,0,0,0,0,0,0,0,0,0,0,0,0,0,0,0,0,0,0,0,0,0,0,0,0,0,0,0,0,0,0,0,4.9144,4.9144,0,4.9178,4.9178,4.9179,4.9178,4.9178,4.9177,4.9177,4.9207,4.9209,4.921,0,0,0,0,0,0,0,0,0,0,0,0,0,4.9075,4.9076,4.9144,4.9144,4.9145,4.9178,4.9178,4.9179,4.9178,4.9178,4.9177,4.9177,4.9207,4.9208,4.921,0,0,0,0,0,0,0,0,0,0,0,0,0,4.9107,4.9077,4.9144,4.9149,4.9149,4.9178,4.9178,4.9179,4.9178,4.9178,4.9177,4.9176,4.9206,4.9208,4.921,4.9235,0,0,4.9216,4.9216,0,0,0,0,0,0,0,0,4.9105,4.9109,4.9147,4.9148,4.9149,4.9173,4.9165,4.9197,4.9179,4.9167,4.9177,4.9176,4.9196,4.9199,4.9207,4.9236,4.9237,4.9216,4.9217,4.9218,4.9218,0,0,0,0,0,0,0,4.9103,4.9108,4.9157,4.9148,4.9149,4.9148,4.9152,4.9171,4.9185,4.9168,4.9168,4.9172,4.9197,4.9205,4.9207,4.9238,4.9216,4.9217,4.9219,4.9219,4.9291,4.9292,0,0,0,0,0,0,4.91,4.9106,4.9156,4.9158,4.9125,4.915,4.9154,4.9166,4.9185,4.9187,4.9173,4.9172,4.9202,4.9205,4.9208,4.924,4.9218,4.9219,4.922,4.929,4.9291,4.9292,0,0,0,0,0,0,4.9098,4.9104,4.9155,4.9132,4.9138,4.9152,4.9165,4.9167,4.9175,4.9188,4.919,4.9179,4.9202,4.9206,4.9229,4.9241,4.922,4.9222,4.9289,4.929,4.9292,4.9302,0,0,0,0,0,0,4.9097,4.9104,4.9114,4.9132,4.914,4.9176,4.9166,4.9168,4.9179,4.9179,4.9195,4.9197,4.9201,4.9226,4.9231,4.9243,4.9223,4.9288,4.929,4.9291,4.9301,4.9304,4.9306,0,0,0,0,0,4.9094,4.9114,4.9115,4.9121,4.9153,4.9176,4.918,4.9187,4.918,4.919,4.9199,4.9196,4.9239,4.9228,4.9234,4.9247,4.9287,4.9289,4.9291,4.93,4.9303,4.9306,0,0,0,0,0,0,4.9095,4.9117,4.9117,4.9144,4.9159,4.9176,4.9189,4.919,4.9205,4.9204,4.9209,4.9213,4.9236,4.9243,4.9232,4.9272,4.9262,4.9265,4.9267,4.927,4.9273,4.9271,4.9225,0,0,0,0,0,4.9098,4.9117,4.9135,4.9157,4.9164,4.9175,4.9186,4.919,4.9204,4.921,4.922,4.9233,4.925,4.926,4.9276,4.9302,4.9306,4.9313,4.9316,4.9318,4.9321,4.9336,4.934,4.9298,4.9298,4.9298,0,0,4.9105,4.912,4.9131,4.9157,4.9169,4.9188,4.918,4.92,4.9213,4.9212,4.9236,4.9243,4.9258,4.9284,4.9295,4.929,4.9333,4.932,4.9322,4.9323,4.9339,4.9343,4.9346,4.9299,4.9299,4.9299,0,0,4.9128,4.914,4.9161,4.9174,4.9193,4.92,4.9205,4.9223,4.9229,4.9253,4.9253,4.9269,4.9297,4.9308,4.9317,4.9346,4.9345,4.9351,4.9365,4.938,4.9383,4.9386,4.9398,4.9402,4.9354,4.9354,4.9354,0,4.9134,4.9163,4.9171,4.9192,4.9204,4.9206,4.9227,4.9238,4.926,4.9268,4.9262,4.9299,4.9309,4.9338,4.9345,4.9352,4.9358,4.935,4.9383,4.9386,4.9389,4.94,4.9404,4.9354,4.9354,4.9354,4.9354,0,4.9171,4.9191,4.9205,4.923,4.9243,4.9263,4.9274,4.9286,4.9289,4.9297,4.9322,4.9334,4.9353,4.936,4.9362,4.9389,4.9386,4.9381,4.9372,4.9393,4.9404,4.9408,4.9355,4.9355,4.9355,4.9355,0,0,4.9194,4.9224,4.9229,4.9241,4.9263,4.9278,4.9298,4.9319,4.933,4.9345,4.9363,4.9387,4.9384,4.9395,4.9398,4.9411,4.9435,4.9405,4.9406,4.9412,4.9468,4.9472,4.9477,4.9434,4.9435,4.9436,4.9467,0,4.922,4.9259,4.9268,4.9301,4.932,4.9323,4.9341,4.9356,4.9364,4.9381,4.9389,4.9407,4.9401,4.9407,4.9421,4.943,4.9447,4.9427,4.9451,4.9452,4.9448,4.9482,4.9486,4.9515,4.9471,4.9472,4.9472,0,4.9255,4.9275,4.9311,4.9332,4.934,4.9356,4.9377,4.9393,4.941,4.9415,4.9428,4.943,4.9451,4.944,4.947,4.9456,4.9466,4.9472,4.9473,4.9476,4.9464,4.9487,4.9524,4.9529,4.9478,4.9478,4.9478,0,4.9271,4.9305,4.9332,4.9341,4.9366,4.9378,4.9388,4.9405,4.9417,4.9435,4.9443,4.9461,4.9472,4.9486,4.9493,4.9484,4.9522,4.9511,4.9527,4.9527,4.9536,4.9535,4.9576,4.954,4.954,4.954,4.954,0,4.93,4.9322,4.934,4.9356,4.9381,4.939,4.9414,4.9424,4.9439,4.9457,4.9459,4.9475,4.9484,4.9501,4.9506,4.9531,4.9535,4.9539,4.9541,4.954,4.9539,4.9547,4.9546,4.9541,4.9541,4.9541,4.954,0,4.9321,4.9334,4.9363,4.9385,4.9392,4.9409,4.9427,4.9443,4.9452,4.9474,4.948,4.9493,4.9514,4.9523,4.9547,4.9551,4.9579,4.9578,4.9574,4.9575,4.9591,4.959,4.9639,4.9646,4.9605,4.9605,4.9605,0,4.9339,4.9357,4.9382,4.9395,4.9407,4.9428,4.9442,4.9451,4.9465,4.9487,4.95,4.9521,4.9539,4.9572,4.9583,4.9602,4.9602,4.9618,4.9605,4.9604,4.9604,4.9603,4.9606,4.9621,4.9621,4.9621,4.9622,0,4.9371,4.9377,4.9398,4.9421,4.9438,4.9456,4.9474,4.9484,4.9496,4.9511,4.9534,4.9548,4.9575,4.9596,4.9616,4.9625,4.9626,4.9626,4.9631,4.963,4.9628,4.9631,4.9582,4.9625,4.9624,4.9624,4.9624,4.9624,4.9392,4.9409,4.943,4.9453,4.9468,4.9485,4.9502,4.9514,4.9533,4.9558,4.9561,4.9586,4.9603,4.963,4.9641,4.9659,4.9655,4.9662,4.9664,4.9666,4.9667,4.9625,4.9663,4.9662,4.9662,4.9662,4.9662,0,4.9425,4.9439,4.9461,4.9487,4.9506,4.9506,4.9526,4.9541,4.9563,4.958,4.9598,4.9625,4.9646,4.9659,4.968,4.9692,4.9693,4.9698,4.9697,4.97,4.9669,4.9664,4.9697,4.9697,4.9697,4.9697,4.9697,4.9697,4.9444,4.9474,4.9482,4.9519,4.9532,4.9558,4.9569,4.9585,4.9599,4.9629,4.9648,4.9657,4.9672,4.9695,4.9714,4.9717,4.9725,4.9731,4.9734,4.9705,4.9702,4.9698,4.9693,4.9732,4.9732,4.9763,4.9763,4.9763]}]]